Location: Kalamazoo
(42.2920°N, 85.5870°W)
Time: 09:33:53
(UTC-04:00)

Daily predictions for brighter satellites

Satellite Brightness Start Highest point End
(mag) Time Altitude Azimuth Time Altitude Azimuth Time Altitude Azimuth
COSMOS 2428 4.1 21:05:03 10° SE 21:08:42 18° E 21:12:22 10° ENE
Atlas Centaur 2 3.6 21:04:07 10° SW 21:09:18 28° S 21:15:27 10° ESE
ATLAS 5 CENTAUR R/B 2.6 21:04:39 10° NNW 21:10:36 65° NE 21:17:02 10° SE
Cosmos 1869 4.3 21:15:18 10° SSW 21:19:08 51° W 21:23:00 10° N
USA 229 DEB 4.0 21:13:43 10° S 21:20:05 44° ESE 21:26:33 10° NE
USA 229 4.0 21:13:51 10° S 21:20:12 43° ESE 21:26:40 10° NE
Cosmos 2322 4.0 21:17:23 10° S 21:22:45 45° ESE 21:28:09 10° NE
SL-16 R/B 2.9 21:21:24 10° SW 21:26:59 60° WNW 21:32:37 10° NNE
Resurs 1-3 4.3 21:25:43 10° S 21:30:01 58° W 21:34:22 10° NNW
USA 186 1.8 21:27:14 10° S 21:30:04 69° W 21:33:06 10° NNW
Lacrosse 4 Rocket 3.3 21:26:28 10° NW 21:30:14 29° WSW 21:34:04 10° S
Intercosmos 25 Rocket 3.5 21:27:01 10° SSW 21:30:19 76° W 21:34:56 10° N
Helios 1B rocket 2.4 21:28:16 10° NNE 21:32:19 59° E 21:36:22 10° S
Cosmos 1992 Rocket 4.4 21:29:13 10° SSW 21:34:25 70° WNW 21:39:40 10° NNE
Spot 1 4.5 21:30:34 10° SSE 21:35:43 79° ENE 21:40:43 10° NNW
CZ-2D R/B 4.4 21:33:24 10° S 21:37:08 45° W 21:40:54 10° NNW
YAOGAN 6 3.6 21:34:54 14° SE 21:37:23 29° ENE 21:40:33 10° N
Cosmos 1844 Rocket 3.6 21:37:26 10° N 21:42:25 32° NE 21:46:15 15° ESE
Cosmos 2237 Rocket 4.1 21:42:54 10° E 21:42:54 10° E 21:43:10 10° E
USA 267 3.7 21:38:10 10° NE 21:44:41 69° NW 21:51:10 10° WSW
Cosmos 2278 Rocket 4.0 21:42:21 10° N 21:45:57 17° NE 21:49:32 10° E
Cosmos 2266 Rocket 4.3 21:39:49 10° N 21:45:57 51° ENE 21:51:42 12° SSE
Cosmos 2333 Rocket 3.6 21:46:22 16° ESE 21:47:55 17° E 21:51:32 10° ENE
Cosmos 1655 Rocket 4.4 21:43:29 10° NNW 21:49:50 67° W 21:56:05 10° S
Meteor 2-10 Rocket 3.7 21:44:59 10° S 21:50:47 76° E 21:56:33 10° NNE
Cosmos 2221 Rocket 4.0 21:53:09 14° SSE 21:56:40 41° E 22:00:52 10° NNE
SJ-11-01 4.3 21:55:43 10° S 22:00:23 80° WSW 22:05:05 10° NNW
BREEZE-M DEB (TANK) 4.2 21:59:11 10° WNW 22:02:40 60° N 22:13:19 10° E
Abrixas rocket 3.9 21:59:51 10° NW 22:02:47 28° N 22:05:13 13° ENE
CZ-4B DEB 3.3 22:00:34 13° S 22:03:10 52° W 22:06:10 10° NNW
Cosmos 2219 Rocket 3.0 22:01:52 17° SSE 22:05:06 30° ESE 22:09:55 10° NE
Cosmos 968 Rocket 3.7 22:00:03 10° NNW 22:05:15 71° WSW 22:09:47 14° S
H-2A R/B 4.2 22:10:39 12° ENE 22:11:38 12° ENE 22:13:27 10° NE
Resurs 01 Rocket 4.3 22:10:46 10° SW 22:13:47 18° W 22:16:50 10° NW
Cosmos 1633 4.4 22:11:19 10° NNE 22:13:48 17° ENE 22:13:48 17° ENE
Cosmos 1908 Rocket 4.0 22:12:55 10° NNW 22:17:13 61° W 22:20:54 14° S
USA 234 3.3 22:14:54 23° ESE 22:19:17 81° NE 22:25:51 10° NW
Cosmos 2263 Rocket 4.0 22:20:32 10° NW 22:25:05 26° WSW 22:29:37 10° SSW
Cosmos 1782 3.1 22:24:25 39° SE 22:25:16 46° E 22:29:07 10° NNE
Envisat 4.1 22:21:05 10° SSW 22:25:50 40° W 22:30:38 10° NNW
Cosmos 1782 Rocket 3.7 22:27:37 10° NNW 22:32:00 74° W 22:34:23 27° S
SL-08 RB Rocket 4.1 22:33:13 37° ESE 22:34:24 46° ENE 22:38:45 10° N
Nadezhda 2 Rocket 4.5 22:29:44 10° N 22:36:13 77° E 22:39:51 28° SSE
Okean 1-7 3.1 22:33:16 18° SSW 22:36:30 78° W 22:40:56 10° N
Cosmos 1346 Rocket 4.1 22:39:07 25° ENE 22:39:07 25° ENE 22:41:34 10° NNE
H-2A R/B 2.6 22:37:55 34° ESE 22:39:09 40° ENE 22:43:44 10° N
CZ-4C R/B 3.4 22:33:41 10° NNW 22:40:29 49° NE 22:44:27 27° ESE
Meteor 1-27 Rocket 4.3 22:39:56 34° ESE 22:40:52 36° E 22:45:56 10° NNE
MetOp-B 4.1 22:38:15 31° SSE 22:40:53 88° ENE 22:46:17 10° NNW
SeaSat 1 2.9 22:41:46 35° ESE 22:43:14 46° ENE 22:47:58 10° NNW
ERS-1 Rocket 3.5 22:42:00 22° S 22:45:04 56° W 22:50:01 10° NNW
USA 245 3.9 22:43:26 38° SSE 22:45:33 76° ENE 22:50:12 10° N
Cosmos 2084 3.6 22:41:49 10° NNW 22:45:34 48° NE 22:46:00 45° ENE
Cosmos 2360 Rocket 3.8 22:41:28 10° WSW 22:46:38 35° WNW 22:51:48 10° N
Cosmos 1570 Rocket 3.9 22:47:23 34° S 22:49:36 66° ESE 22:54:51 10° NNE
SPOT 5 2.7 22:48:34 45° SSE 22:50:00 86° E 22:54:36 10° NNW
Okean 2 Rocket 3.4 22:45:36 10° NNW 22:50:05 66° W 22:51:48 36° SSW
TRAILBLAZER 4.5 22:47:41 10° SSW 22:52:14 89° WNW 22:56:49 10° NNE
COSMOS 2428 3.0 22:46:42 10° SW 22:52:21 66° WNW 22:58:02 10° NNE
ATLAS 5 CENTAUR R/B 4.1 22:50:07 10° WNW 22:55:01 25° WSW 22:59:24 13° SSW
S3M 4.2 22:53:35 40° SE 22:55:04 48° E 23:01:00 10° NNE
Nimbus 7 Rocket 4.3 22:50:30 10° NNE 22:56:27 70° ESE 22:59:10 34° S
Atlas Centaur 2 3.7 22:52:07 10° WSW 22:57:59 30° S 22:58:46 29° S
NOAA 11 4.5 22:56:06 30° S 22:58:48 63° WSW 23:04:15 10° NNW
Cosmos 1980 3.8 22:58:04 48° SE 22:58:54 52° ESE 23:04:22 10° NNE
Cosmos 1844 3.6 22:55:45 10° NNW 23:01:26 82° WSW 23:03:06 47° SSE
Cosmos 2208 Rocket 3.9 22:59:30 39° S 23:01:34 76° ESE 23:06:53 10° NNE
ARGOS 3.1 23:00:07 41° S 23:02:02 78° WSW 23:07:27 10° NNW
Cosmos 1606 2.7 23:02:44 71° WSW 23:02:55 73° W 23:06:42 10° N
NOSS 3-1 (C) 3.3 22:57:49 10° SW 23:03:34 90° W 23:10:04 10° NE
Meteor 1-10 Rocket 4.3 23:00:10 26° SSW 23:03:38 84° W 23:09:30 10° N
SL-16 R/B 3.8 23:07:51 19° ENE 23:07:51 19° ENE 23:10:11 10° NE
Meteor 1-11 Rocket 3.7 23:02:22 10° N 23:07:53 63° ENE 23:08:50 54° ESE
Iridium 4 Rocket 4.0 23:04:08 10° NNE 23:07:08 33° NE 23:07:08 33° NE
ASTEX 1 3.6 23:08:04 52° E 23:08:21 53° E 23:13:13 10° N
MOS 1-B Rocket 3.9 23:06:17 39° S 23:08:32 74° WSW 23:14:08 10° NNW
Landsat 7 3.8 23:12:37 64° E 23:12:54 66° ENE 23:17:37 10° N
IGS 5A 4.3 23:17:57 40° NE 23:17:57 40° NE 23:21:14 10° N
CARTOSAT-1 4.1 23:19:48 48° NE 23:19:48 48° NE 23:23:31 10° N
Cosmos 1898 Rocket 3.6 23:15:04 10° NNW 23:20:11 56° ENE 23:20:27 55° E
Timation 1 Rocket 4.4 23:14:50 10° NNW 23:20:47 61° ENE 23:21:48 53° ESE
NOSS 3-1 (A) 3.3 23:16:00 15° SSW 23:20:50 88° SE 23:27:22 10° NE
ATLAS 2AS CENTAUR R/B 4.1 23:23:56 26° E 23:23:56 26° E 23:28:50 10° NE
Cosmos 2151 Rocket 3.9 23:20:19 10° NNW 23:24:42 58° W 23:25:01 56° WSW
Cosmos 2237 Rocket 2.0 23:24:38 60° S 23:25:39 80° ESE 23:31:23 10° NNE
Cosmos 1844 Rocket 3.7 23:21:13 10° NW 23:26:20 38° WSW 23:27:55 31° SW
SPOT 1/Viking Rocket 3.8 23:26:06 51° SSW 23:27:07 62° WSW 23:32:18 10° NNW
Cosmos 1745 Rocket 3.9 23:20:47 10° N 23:27:09 77° E 23:28:24 59° SSE
Terra 1.9 23:28:13 64° ENE 23:28:13 64° ENE 23:32:45 10° N
Cosmos 2278 Rocket 2.0 23:25:07 10° NNW 23:30:48 86° WSW 23:31:26 72° SSE
Cosmos 1536 3.8 23:26:49 10° N 23:29:40 41° NNE 23:29:40 41° NNE
Cosmos 2333 Rocket 2.4 23:28:13 26° SW 23:31:31 69° WNW 23:37:18 10° NNE
NOSS 0 Rocket 3.9 23:30:34 30° SSW 23:33:45 79° WNW 23:39:56 10° NNE
Cosmos 1674 Rocket 3.9 23:36:43 63° NNW 23:36:43 63° NNW 23:40:29 10° N
Okean 1 Rocket 3.5 23:32:18 10° N 23:35:57 55° NNE 23:35:57 55° NNE
Cosmos 2285 Rocket 4.4 23:40:54 47° E 23:40:54 47° E 23:46:26 10° NNE
SL-19 R/B 4.2 23:35:29 10° NNE 23:41:31 78° ESE 23:41:52 74° SE
ATLAS 3B R/B 3.9 23:40:38 10° NNW 23:46:40 31° NE 23:49:10 24° ENE
H-2A R/B 2.6 23:47:46 56° NW 23:47:46 56° NW 23:51:23 10° NNW
Spot 4 4.4 23:49:19 50° NE 23:49:19 50° NE 23:53:15 10° N
Cosmos 2219 Rocket 3.3 23:43:38 10° SW 23:48:52 40° WNW 23:54:10 10° NNE
Gbstr 26 Del rocket 4.4 23:43:20 10° SW 23:51:11 87° SE 23:59:22 10° ENE
Cosmos 468 Rocket 4.0 23:51:59 80° N 23:51:59 80° N 23:57:04 10° NNE
